Time,TemperatureF,DewpointF,PressureIn,WindDirection,WindDirectionDegrees,WindSpeedMPH,WindSpeedGustMPH,Humidity,HourlyPrecipIn,Conditions,Clouds,dailyrainin,SoftwareType,DateUTC
2013-08-12 00:01:00,58.1,55.5,30.11,SSW,206,0.0,1.0,91,0.00,,,0.00,Weather View 32 v70,2013-08-12 04:01:00,
2013-08-12 00:04:00,58.1,55.5,30.11,SW,227,0.0,1.0,91,0.00,,,0.00,Weather View 32 v70,2013-08-12 04:04:00,
2013-08-12 00:09:00,58.2,55.6,30.11,SSE,152,0.0,1.0,91,0.00,,,0.00,Weather View 32 v70,2013-08-12 04:09:00,
2013-08-12 00:14:00,57.9,55.3,30.11,NNE,17,0.0,1.0,91,0.00,,,0.00,Weather View 32 v70,2013-08-12 04:14:00,
2013-08-12 00:19:00,57.9,55.3,30.11,West,281,0.0,1.0,91,0.00,,,0.00,Weather View 32 v70,2013-08-12 04:19:00,
2013-08-12 00:24:00,57.3,54.7,30.10,NE,35,0.0,1.0,91,0.00,,,0.00,Weather View 32 v70,2013-08-12 04:24:00,
2013-08-12 00:29:00,57.3,54.7,30.11,NW,326,0.0,1.0,91,0.00,,,0.00,Weather View 32 v70,2013-08-12 04:29:00,
2013-08-12 00:34:00,57.2,54.6,30.11,SW,223,1.0,1.0,91,0.00,,,0.00,Weather View 32 v70,2013-08-12 04:34:00,
2013-08-12 00:39:00,57.0,54.4,30.11,North,349,0.0,1.0,91,0.00,,,0.00,Weather View 32 v70,2013-08-12 04:39:00,
2013-08-12 00:44:00,57.2,54.6,30.11,ESE,123,0.0,1.0,91,0.00,,,0.00,Weather View 32 v70,2013-08-12 04:44:00,
2013-08-12 00:49:00,57.0,54.7,30.11,West,280,0.0,1.0,92,0.00,,,0.00,Weather View 32 v70,2013-08-12 04:49:00,
2013-08-12 00:54:00,57.0,54.7,30.11,NNW,343,1.0,1.0,92,0.00,,,0.00,Weather View 32 v70,2013-08-12 04:54:00,
2013-08-12 00:59:00,57.0,54.7,30.11,WSW,255,1.0,1.0,92,0.00,,,0.00,Weather View 32 v70,2013-08-12 04:59:00,
2013-08-12 01:04:00,56.8,54.5,30.11,NNW,337,1.0,1.0,92,0.00,,,0.00,Weather View 32 v70,2013-08-12 05:04:00,
2013-08-12 01:09:00,56.6,54.3,30.11,South,191,1.0,1.0,92,0.00,,,0.00,Weather View 32 v70,2013-08-12 05:09:00,
2013-08-12 01:14:00,56.6,54.3,30.11,West,268,0.0,1.0,92,0.00,,,0.00,Weather View 32 v70,2013-08-12 05:14:00,
2013-08-12 01:19:00,56.8,54.5,30.11,WSW,240,1.0,1.0,92,0.00,,,0.00,Weather View 32 v70,2013-08-12 05:19:00,
2013-08-12 01:24:00,56.4,54.1,30.11,NW,309,0.0,1.0,92,0.00,,,0.00,Weather View 32 v70,2013-08-12 05:24:00,
2013-08-12 01:29:00,56.4,54.1,30.11,NE,35,0.0,1.0,92,0.00,,,0.00,Weather View 32 v70,2013-08-12 05:29:00,
2013-08-12 01:34:00,56.4,54.1,30.11,NNW,328,0.0,1.0,92,0.00,,,0.00,Weather View 32 v70,2013-08-12 05:34:00,
2013-08-12 01:39:00,56.4,54.1,30.11,SW,217,0.0,1.0,92,0.00,,,0.00,Weather View 32 v70,2013-08-12 05:39:00,
2013-08-12 01:44:00,56.3,54.0,30.11,SSW,193,0.0,1.0,92,0.00,,,0.00,Weather View 32 v70,2013-08-12 05:44:00,
2013-08-12 01:49:00,56.4,54.1,30.11,SSW,205,0.0,1.0,92,0.00,,,0.00,Weather View 32 v70,2013-08-12 05:49:00,
2013-08-12 01:54:00,56.6,54.3,30.11,East,96,0.0,1.0,92,0.00,,,0.00,Weather View 32 v70,2013-08-12 05:54:00,
2013-08-12 01:59:00,56.6,54.3,30.10,ENE,60,0.0,1.0,92,0.00,,,0.00,Weather View 32 v70,2013-08-12 05:59:00,
2013-08-12 02:04:00,56.8,54.5,30.10,North,352,1.0,1.0,92,0.00,,,0.00,Weather View 32 v70,2013-08-12 06:04:00,
2013-08-12 02:09:00,57.2,54.9,30.10,NNW,332,1.0,1.0,92,0.00,,,0.00,Weather View 32 v70,2013-08-12 06:09:00,
2013-08-12 02:14:00,57.5,55.2,30.10,NNW,327,0.0,1.0,92,0.00,,,0.00,Weather View 32 v70,2013-08-12 06:14:00,
2013-08-12 02:19:00,57.3,55.0,30.10,SW,230,1.0,1.0,92,0.00,,,0.00,Weather View 32 v70,2013-08-12 06:19:00,
2013-08-12 02:24:00,57.3,55.0,30.11,SW,218,0.0,1.0,92,0.00,,,0.00,Weather View 32 v70,2013-08-12 06:24:00,
2013-08-12 02:29:00,57.5,55.2,30.10,NNW,331,1.0,1.0,92,0.00,,,0.00,Weather View 32 v70,2013-08-12 06:29:00,
2013-08-12 02:34:00,57.3,55.0,30.11,NW,316,0.0,1.0,92,0.00,,,0.00,Weather View 32 v70,2013-08-12 06:34:00,
2013-08-12 02:39:00,57.3,55.0,30.11,NNW,347,0.0,1.0,92,0.00,,,0.00,Weather View 32 v70,2013-08-12 06:39:00,
2013-08-12 02:44:00,57.0,54.7,30.11,South,180,0.0,1.0,92,0.00,,,0.00,Weather View 32 v70,2013-08-12 06:44:00,
2013-08-12 02:49:00,57.2,54.9,30.11,NW,316,1.0,1.0,92,0.00,,,0.00,Weather View 32 v70,2013-08-12 06:49:00,
2013-08-12 02:54:00,57.2,54.9,30.10,NW,318,1.0,1.0,92,0.00,,,0.00,Weather View 32 v70,2013-08-12 06:54:00,
2013-08-12 02:59:00,57.2,54.9,30.10,NW,315,1.0,1.0,92,0.00,,,0.00,Weather View 32 v70,2013-08-12 06:59:00,
2013-08-12 03:04:00,57.2,54.9,30.10,South,173,0.0,1.0,92,0.00,,,0.00,Weather View 32 v70,2013-08-12 07:04:00,
2013-08-12 03:09:00,57.2,54.9,30.10,SW,215,1.0,1.0,92,0.00,,,0.00,Weather View 32 v70,2013-08-12 07:09:00,
2013-08-12 03:14:00,57.2,54.9,30.10,NNW,331,0.0,1.0,92,0.00,,,0.00,Weather View 32 v70,2013-08-12 07:14:00,
2013-08-12 03:19:00,57.3,55.3,30.10,NNW,337,0.0,1.0,93,0.00,,,0.00,Weather View 32 v70,2013-08-12 07:19:00,
2013-08-12 03:24:00,57.3,55.0,30.10,NNW,333,1.0,1.0,92,0.00,,,0.00,Weather View 32 v70,2013-08-12 07:24:00,
2013-08-12 03:29:00,57.7,55.7,30.10,SSE,149,1.0,1.0,93,0.00,,,0.00,Weather View 32 v70,2013-08-12 07:29:00,
2013-08-12 03:34:00,57.9,55.9,30.10,WNW,300,0.0,1.0,93,0.00,,,0.00,Weather View 32 v70,2013-08-12 07:34:00,
2013-08-12 03:39:00,57.9,55.9,30.10,North,350,0.0,1.0,93,0.00,,,0.00,Weather View 32 v70,2013-08-12 07:39:00,
2013-08-12 03:44:00,57.9,55.9,30.10,WNW,297,0.0,1.0,93,0.00,,,0.00,Weather View 32 v70,2013-08-12 07:44:00,
2013-08-12 03:49:00,57.9,55.9,30.10,NNW,330,0.0,1.0,93,0.00,,,0.00,Weather View 32 v70,2013-08-12 07:49:00,
2013-08-12 03:54:00,58.1,56.1,30.11,NNW,329,0.0,1.0,93,0.00,,,0.00,Weather View 32 v70,2013-08-12 07:54:00,
2013-08-12 03:59:00,58.1,56.1,30.11,SSE,168,0.0,1.0,93,0.00,,,0.00,Weather View 32 v70,2013-08-12 07:59:00,
2013-08-12 04:04:00,58.4,56.4,30.10,NW,318,1.0,1.0,93,0.00,,,0.00,Weather View 32 v70,2013-08-12 08:04:00,
2013-08-12 04:09:00,58.1,56.1,30.11,North,354,0.0,1.0,93,0.00,,,0.00,Weather View 32 v70,2013-08-12 08:09:00,
2013-08-12 04:14:00,58.2,56.2,30.10,West,275,0.0,1.0,93,0.00,,,0.00,Weather View 32 v70,2013-08-12 08:14:00,
2013-08-12 04:19:00,58.2,56.2,30.11,NW,326,0.0,1.0,93,0.00,,,0.00,Weather View 32 v70,2013-08-12 08:19:00,
2013-08-12 04:24:00,58.4,56.4,30.10,SSW,197,1.0,1.0,93,0.00,,,0.00,Weather View 32 v70,2013-08-12 08:24:00,
2013-08-12 04:29:00,58.6,56.6,30.10,NNW,332,0.0,1.0,93,0.00,,,0.00,Weather View 32 v70,2013-08-12 08:29:00,
2013-08-12 04:34:00,58.4,56.4,30.10,NW,305,1.0,2.0,93,0.00,,,0.00,Weather View 32 v70,2013-08-12 08:34:00,
2013-08-12 04:39:00,58.2,56.2,30.10,South,174,0.0,2.0,93,0.00,,,0.00,Weather View 32 v70,2013-08-12 08:39:00,
2013-08-12 04:44:00,58.1,56.1,30.10,ENE,76,0.0,2.0,93,0.00,,,0.00,Weather View 32 v70,2013-08-12 08:44:00,
2013-08-12 04:49:00,57.7,55.7,30.10,SW,215,0.0,2.0,93,0.00,,,0.00,Weather View 32 v70,2013-08-12 08:49:00,
2013-08-12 04:54:00,57.5,55.5,30.10,WSW,238,0.0,2.0,93,0.00,,,0.00,Weather View 32 v70,2013-08-12 08:54:00,
2013-08-12 04:59:00,57.5,55.5,30.10,NE,40,0.0,2.0,93,0.00,,,0.00,Weather View 32 v70,2013-08-12 08:59:00,
2013-08-12 05:04:00,57.2,55.2,30.10,ESE,113,0.0,2.0,93,0.00,,,0.00,Weather View 32 v70,2013-08-12 09:04:00,
2013-08-12 05:09:00,57.0,55.0,30.10,SE,128,0.0,2.0,93,0.00,,,0.00,Weather View 32 v70,2013-08-12 09:09:00,
2013-08-12 05:14:00,57.0,55.0,30.11,NW,315,0.0,2.0,93,0.00,,,0.00,Weather View 32 v70,2013-08-12 09:14:00,
2013-08-12 05:19:00,56.8,54.8,30.10,WNW,303,1.0,2.0,93,0.00,,,0.00,Weather View 32 v70,2013-08-12 09:19:00,
2013-08-12 05:24:00,56.8,54.8,30.10,NE,56,0.0,2.0,93,0.00,,,0.00,Weather View 32 v70,2013-08-12 09:24:00,
2013-08-12 05:29:00,56.6,54.6,30.10,West,267,0.0,2.0,93,0.00,,,0.00,Weather View 32 v70,2013-08-12 09:29:00,
2013-08-12 05:34:00,56.4,54.4,30.11,SSW,209,0.0,1.0,93,0.00,,,0.00,Weather View 32 v70,2013-08-12 09:34:00,
2013-08-12 05:39:00,56.4,54.4,30.10,SSE,155,0.0,1.0,93,0.00,,,0.00,Weather View 32 v70,2013-08-12 09:39:00,
2013-08-12 05:44:00,56.3,54.3,30.10,NNE,21,0.0,1.0,93,0.00,,,0.00,Weather View 32 v70,2013-08-12 09:44:00,
2013-08-12 05:49:00,56.1,54.1,30.10,South,172,0.0,1.0,93,0.00,,,0.00,Weather View 32 v70,2013-08-12 09:49:00,
2013-08-12 05:54:00,55.9,53.9,30.11,NE,35,0.0,1.0,93,0.00,,,0.00,Weather View 32 v70,2013-08-12 09:54:00,
2013-08-12 05:59:00,56.1,54.1,30.11,WNW,289,0.0,1.0,93,0.00,,,0.00,Weather View 32 v70,2013-08-12 09:59:00,
2013-08-12 06:04:00,55.9,53.9,30.11,SSE,150,0.0,1.0,93,0.00,,,0.00,Weather View 32 v70,2013-08-12 10:04:00,
2013-08-12 06:09:00,56.1,54.1,30.11,South,178,0.0,1.0,93,0.00,,,0.00,Weather View 32 v70,2013-08-12 10:09:00,
2013-08-12 06:14:00,55.9,53.9,30.11,West,276,0.0,1.0,93,0.00,,,0.00,Weather View 32 v70,2013-08-12 10:14:00,
2013-08-12 06:19:00,55.9,53.9,30.12,NE,56,0.0,1.0,93,0.00,,,0.00,Weather View 32 v70,2013-08-12 10:19:00,
2013-08-12 06:24:00,55.5,53.5,30.11,South,191,0.0,1.0,93,0.00,,,0.00,Weather View 32 v70,2013-08-12 10:24:00,
2013-08-12 06:29:00,55.5,53.5,30.11,NNW,329,0.0,1.0,93,0.00,,,0.00,Weather View 32 v70,2013-08-12 10:29:00,
2013-08-12 06:34:00,55.9,53.9,30.11,North,350,0.0,1.0,93,0.00,,,0.00,Weather View 32 v70,2013-08-12 10:34:00,
2013-08-12 06:39:00,55.5,53.5,30.11,NNE,23,0.0,1.0,93,0.00,,,0.00,Weather View 32 v70,2013-08-12 10:39:00,
2013-08-12 06:44:00,55.9,53.9,30.11,SW,236,0.0,1.0,93,0.00,,,0.00,Weather View 32 v70,2013-08-12 10:44:00,
2013-08-12 06:49:00,56.3,54.3,30.11,East,82,0.0,1.0,93,0.00,,,0.00,Weather View 32 v70,2013-08-12 10:49:00,
2013-08-12 06:54:00,56.4,54.4,30.11,East,87,0.0,1.0,93,0.00,,,0.00,Weather View 32 v70,2013-08-12 10:54:00,
2013-08-12 06:59:00,56.6,54.6,30.11,WNW,288,0.0,1.0,93,0.00,,,0.00,Weather View 32 v70,2013-08-12 10:59:00,
2013-08-12 07:04:00,56.6,54.6,30.11,SSW,196,0.0,1.0,93,0.00,,,0.00,Weather View 32 v70,2013-08-12 11:04:00,
2013-08-12 07:09:00,57.0,55.0,30.11,WSW,254,1.0,2.0,93,0.00,,,0.00,Weather View 32 v70,2013-08-12 11:09:00,
2013-08-12 07:14:00,57.7,55.7,30.11,SE,129,0.0,2.0,93,0.00,,,0.00,Weather View 32 v70,2013-08-12 11:14:00,
2013-08-12 07:19:00,58.1,56.1,30.11,NE,49,0.0,2.0,93,0.00,,,0.00,Weather View 32 v70,2013-08-12 11:19:00,
2013-08-12 07:24:00,58.4,56.4,30.10,NNW,341,1.0,2.0,93,0.00,,,0.00,Weather View 32 v70,2013-08-12 11:24:00,
2013-08-12 07:29:00,59.0,57.0,30.10,NW,315,1.0,2.0,93,0.00,,,0.00,Weather View 32 v70,2013-08-12 11:29:00,
2013-08-12 07:34:00,59.3,57.3,30.11,SE,133,0.0,2.0,93,0.00,,,0.00,Weather View 32 v70,2013-08-12 11:34:00,
2013-08-12 07:39:00,60.0,58.0,30.10,ENE,65,0.0,2.0,93,0.00,,,0.00,Weather View 32 v70,2013-08-12 11:39:00,
2013-08-12 07:44:00,60.6,58.6,30.11,ESE,114,0.0,2.0,93,0.00,,,0.00,Weather View 32 v70,2013-08-12 11:44:00,
2013-08-12 07:49:00,61.1,59.1,30.10,ESE,114,1.0,2.0,93,0.00,,,0.00,Weather View 32 v70,2013-08-12 11:49:00,
2013-08-12 07:54:00,61.8,59.7,30.10,NW,311,1.0,2.0,93,0.00,,,0.00,Weather View 32 v70,2013-08-12 11:54:00,
2013-08-12 07:59:00,62.6,60.5,30.10,ESE,105,1.0,2.0,93,0.00,,,0.00,Weather View 32 v70,2013-08-12 11:59:00,
2013-08-12 08:04:00,63.5,62.0,30.09,East,100,0.0,2.0,95,0.00,,,0.00,Weather View 32 v70,2013-08-12 12:04:00,
2013-08-12 08:09:00,64.0,61.9,30.09,ESE,115,3.0,3.0,93,0.00,,,0.00,Weather View 32 v70,2013-08-12 12:09:00,
2013-08-12 08:14:00,65.1,60.8,30.09,SE,143,1.0,4.0,86,0.00,,,0.00,Weather View 32 v70,2013-08-12 12:14:00,
2013-08-12 08:19:00,65.6,60.3,30.09,NE,46,1.0,4.0,83,0.00,,,0.00,Weather View 32 v70,2013-08-12 12:19:00,
2013-08-12 08:24:00,66.2,60.5,30.09,West,278,0.0,4.0,82,0.00,,,0.00,Weather View 32 v70,2013-08-12 12:24:00,
2013-08-12 08:29:00,67.1,61.1,30.08,NNE,19,2.0,4.0,81,0.00,,,0.00,Weather View 32 v70,2013-08-12 12:29:00,
2013-08-12 08:34:00,68.3,60.4,30.07,ESE,120,2.0,4.0,76,0.00,,,0.00,Weather View 32 v70,2013-08-12 12:34:00,
2013-08-12 08:39:00,69.2,60.5,30.07,SE,124,2.0,4.0,74,0.00,,,0.00,Weather View 32 v70,2013-08-12 12:39:00,
2013-08-12 08:44:00,69.6,60.5,30.06,NNE,20,1.0,4.0,73,0.00,,,0.00,Weather View 32 v70,2013-08-12 12:44:00,
2013-08-12 08:49:00,69.9,59.6,30.06,SE,139,2.0,4.0,70,0.00,,,0.00,Weather View 32 v70,2013-08-12 12:49:00,
2013-08-12 08:54:00,70.1,59.8,30.06,NNW,337,1.0,4.0,70,0.00,,,0.00,Weather View 32 v70,2013-08-12 12:54:00,
2013-08-12 08:59:00,71.0,60.7,30.06,SE,134,3.0,4.0,70,0.00,,,0.00,Weather View 32 v70,2013-08-12 12:59:00,
2013-08-12 09:04:00,71.2,60.1,30.05,SSE,152,1.0,4.0,68,0.00,,,0.00,Weather View 32 v70,2013-08-12 13:04:00,
2013-08-12 09:10:00,71.6,59.6,30.05,ENE,61,1.0,4.0,66,0.00,,,0.00,Weather View 32 v70,2013-08-12 13:10:00,
2013-08-12 09:15:00,71.7,58.4,30.04,NW,313,2.0,3.0,63,0.00,,,0.00,Weather View 32 v70,2013-08-12 13:15:00,
2013-08-12 09:20:00,71.4,60.7,30.04,East,95,1.0,3.0,69,0.00,,,0.00,Weather View 32 v70,2013-08-12 13:20:00,
2013-08-12 09:25:00,71.7,60.1,30.04,NNE,32,1.0,3.0,67,0.00,,,0.00,Weather View 32 v70,2013-08-12 13:25:00,
2013-08-12 09:30:00,72.6,61.4,30.04,NNW,329,1.0,3.0,68,0.00,,,0.00,Weather View 32 v70,2013-08-12 13:30:00,
2013-08-12 09:35:00,73.7,60.7,30.03,South,174,1.0,3.0,64,0.00,,,0.00,Weather View 32 v70,2013-08-12 13:35:00,
2013-08-12 09:40:00,74.1,60.7,30.03,ESE,114,3.0,3.0,63,0.00,,,0.00,Weather View 32 v70,2013-08-12 13:40:00,
2013-08-12 09:45:00,74.1,60.7,30.03,SSE,148,0.0,3.0,63,0.00,,,0.00,Weather View 32 v70,2013-08-12 13:45:00,
2013-08-12 09:50:00,74.4,62.3,30.02,ENE,69,1.0,3.0,66,0.00,,,0.00,Weather View 32 v70,2013-08-12 13:50:00,
2013-08-12 09:55:00,74.3,59.5,30.02,NNW,331,2.0,4.0,60,0.00,,,0.00,Weather View 32 v70,2013-08-12 13:55:00,
2013-08-12 10:00:00,74.4,59.1,30.02,SE,127,2.0,4.0,59,0.00,,,0.00,Weather View 32 v70,2013-08-12 14:00:00,
2013-08-12 10:05:00,74.6,59.3,30.02,SSE,150,2.0,4.0,59,0.00,,,0.00,Weather View 32 v70,2013-08-12 14:05:00,
2013-08-12 10:10:00,74.6,60.2,30.01,North,1,1.0,4.0,61,0.00,,,0.00,Weather View 32 v70,2013-08-12 14:10:00,
2013-08-12 10:15:00,75.0,59.2,30.01,NW,321,2.0,4.0,58,0.00,,,0.00,Weather View 32 v70,2013-08-12 14:15:00,
2013-08-12 10:20:00,75.5,58.1,30.01,East,84,2.0,4.0,55,0.00,,,0.00,Weather View 32 v70,2013-08-12 14:20:00,
2013-08-12 10:25:00,76.2,59.8,30.00,SSW,198,1.0,4.0,57,0.00,,,0.00,Weather View 32 v70,2013-08-12 14:25:00,
2013-08-12 10:30:00,76.1,61.6,30.01,SSE,148,1.0,4.0,61,0.00,,,0.00,Weather View 32 v70,2013-08-12 14:30:00,
2013-08-12 10:35:00,76.1,58.7,30.01,NE,44,1.0,4.0,55,0.00,,,0.00,Weather View 32 v70,2013-08-12 14:35:00,
2013-08-12 10:40:00,76.2,59.3,30.00,North,10,2.0,4.0,56,0.00,,,0.00,Weather View 32 v70,2013-08-12 14:40:00,
2013-08-12 10:45:00,76.8,59.9,30.00,ESE,121,2.0,4.0,56,0.00,,,0.00,Weather View 32 v70,2013-08-12 14:45:00,
2013-08-12 10:50:00,76.8,59.4,29.99,SSE,167,4.0,4.0,55,0.00,,,0.00,Weather View 32 v70,2013-08-12 14:50:00,
2013-08-12 10:55:00,76.6,59.2,29.99,East,88,1.0,5.0,55,0.00,,,0.00,Weather View 32 v70,2013-08-12 14:55:00,
2013-08-12 11:00:00,77.0,60.5,29.99,South,190,3.0,5.0,57,0.00,,,0.00,Weather View 32 v70,2013-08-12 15:00:00,
2013-08-12 11:05:00,77.1,61.1,29.98,SSW,207,3.0,5.0,58,0.00,,,0.00,Weather View 32 v70,2013-08-12 15:05:00,
2013-08-12 11:10:00,77.5,61.0,29.98,ESE,115,3.0,6.0,57,0.00,,,0.00,Weather View 32 v70,2013-08-12 15:10:00,
2013-08-12 11:15:00,77.3,59.3,29.98,East,84,2.0,6.0,54,0.00,,,0.00,Weather View 32 v70,2013-08-12 15:15:00,
2013-08-12 11:20:00,77.7,58.6,29.98,SE,125,2.0,6.0,52,0.00,,,0.00,Weather View 32 v70,2013-08-12 15:20:00,
2013-08-12 11:25:00,77.7,58.6,29.98,South,184,3.0,6.0,52,0.00,,,0.00,Weather View 32 v70,2013-08-12 15:25:00,
2013-08-12 11:30:00,78.6,58.9,29.98,NNE,24,2.0,6.0,51,0.00,,,0.00,Weather View 32 v70,2013-08-12 15:30:00,
2013-08-12 11:35:00,78.6,58.9,29.98,ESE,116,1.0,6.0,51,0.00,,,0.00,Weather View 32 v70,2013-08-12 15:35:00,
2013-08-12 11:40:00,78.9,59.7,29.98,NNE,16,2.0,6.0,52,0.00,,,0.00,Weather View 32 v70,2013-08-12 15:40:00,
2013-08-12 11:45:00,78.9,60.3,29.98,North,3,0.0,6.0,53,0.00,,,0.00,Weather View 32 v70,2013-08-12 15:45:00,
2013-08-12 11:50:00,79.7,63.1,29.97,ESE,116,0.0,6.0,57,0.00,,,0.00,Weather View 32 v70,2013-08-12 15:50:00,
2013-08-12 11:55:00,79.8,62.1,29.97,South,190,1.0,6.0,55,0.00,,,0.00,Weather View 32 v70,2013-08-12 15:55:00,
2013-08-12 12:00:00,79.5,59.2,29.97,NNW,341,4.0,6.0,50,0.00,,,0.00,Weather View 32 v70,2013-08-12 16:00:00,
2013-08-12 12:05:00,79.1,58.8,29.97,WSW,243,1.0,6.0,50,0.00,,,0.00,Weather View 32 v70,2013-08-12 16:05:00,
2013-08-12 12:10:00,79.5,60.8,29.97,SSE,162,3.0,6.0,53,0.00,,,0.00,Weather View 32 v70,2013-08-12 16:10:00,
2013-08-12 12:15:00,79.7,58.8,29.97,SE,139,3.0,5.0,49,0.00,,,0.00,Weather View 32 v70,2013-08-12 16:15:00,
2013-08-12 12:20:00,79.3,58.4,29.97,SW,223,2.0,5.0,49,0.00,,,0.00,Weather View 32 v70,2013-08-12 16:20:00,
2013-08-12 12:25:00,79.3,59.0,29.97,SSE,151,2.0,5.0,50,0.00,,,0.00,Weather View 32 v70,2013-08-12 16:25:00,
2013-08-12 12:30:00,80.0,59.1,29.96,SSE,168,0.0,5.0,49,0.00,,,0.00,Weather View 32 v70,2013-08-12 16:30:00,
2013-08-12 12:35:00,80.4,58.8,29.96,NNE,15,4.0,5.0,48,0.00,,,0.00,Weather View 32 v70,2013-08-12 16:35:00,
2013-08-12 12:40:00,80.6,58.4,29.96,SSW,193,4.0,5.0,47,0.00,,,0.00,Weather View 32 v70,2013-08-12 16:40:00,
2013-08-12 12:45:00,81.8,61.3,29.96,WSW,257,2.0,5.0,50,0.00,,,0.00,Weather View 32 v70,2013-08-12 16:45:00,
2013-08-12 12:50:00,81.6,58.1,29.95,SSW,212,2.0,5.0,45,0.00,,,0.00,Weather View 32 v70,2013-08-12 16:50:00,
2013-08-12 12:55:00,80.2,59.2,29.96,WNW,285,0.0,9.0,49,0.00,,,0.00,Weather View 32 v70,2013-08-12 16:55:00,
2013-08-12 13:01:00,80.6,56.6,29.96,NNE,20,1.0,9.0,44,0.00,,,0.00,Weather View 32 v70,2013-08-12 17:01:00,
2013-08-12 13:08:00,81.6,56.9,29.95,SSW,197,1.0,9.0,43,0.00,,,0.00,Weather View 32 v70,2013-08-12 17:08:00,
2013-08-12 13:15:00,81.3,57.2,29.95,SSW,206,3.0,9.0,44,0.00,,,0.00,Weather View 32 v70,2013-08-12 17:15:00,
2013-08-12 13:20:00,80.7,59.7,29.95,NW,304,4.0,9.0,49,0.00,,,0.00,Weather View 32 v70,2013-08-12 17:20:00,
2013-08-12 13:25:00,79.8,58.9,29.96,SW,219,2.0,9.0,49,0.00,,,0.00,Weather View 32 v70,2013-08-12 17:25:00,
2013-08-12 13:31:00,81.3,60.8,29.96,NNE,21,2.0,9.0,50,0.00,,,0.00,Weather View 32 v70,2013-08-12 17:31:00,
2013-08-12 13:36:00,82.0,59.7,29.95,WSW,250,2.0,9.0,47,0.00,,,0.00,Weather View 32 v70,2013-08-12 17:36:00,
2013-08-12 13:41:00,82.0,58.5,29.95,SW,224,3.0,9.0,45,0.00,,,0.00,Weather View 32 v70,2013-08-12 17:41:00,
2013-08-12 13:46:00,82.5,60.8,29.94,SSE,156,4.0,9.0,48,0.00,,,0.00,Weather View 32 v70,2013-08-12 17:46:00,
2013-08-12 13:51:00,82.5,58.3,29.93,SSE,152,1.0,9.0,44,0.00,,,0.01,Weather View 32 v70,2013-08-12 17:51:00,
2013-08-12 13:57:00,82.5,57.7,29.93,NW,317,1.0,6.0,43,0.01,,,0.01,Weather View 32 v70,2013-08-12 17:57:00,
2013-08-12 14:02:00,82.5,60.2,29.93,WSW,258,2.0,6.0,47,0.01,,,0.01,Weather View 32 v70,2013-08-12 18:02:00,
2013-08-12 14:03:00,82.5,62.5,29.94,SW,221,3.0,6.0,51,0.01,,,0.01,Weather View 32 v70,2013-08-12 18:03:00,
2013-08-12 14:09:00,81.3,61.4,29.94,SE,129,4.0,6.0,51,0.01,,,0.01,Weather View 32 v70,2013-08-12 18:09:00,
2013-08-12 14:14:00,80.4,61.6,29.94,SSW,210,2.0,6.0,53,0.01,,,0.01,Weather View 32 v70,2013-08-12 18:14:00,
2013-08-12 14:20:00,79.7,60.5,29.94,East,79,1.0,6.0,52,0.01,,,0.01,Weather View 32 v70,2013-08-12 18:20:00,
2013-08-12 14:25:00,79.7,59.9,29.94,SE,146,4.0,6.0,51,0.01,,,0.01,Weather View 32 v70,2013-08-12 18:25:00,
2013-08-12 14:30:00,79.3,60.1,29.94,SE,134,2.0,6.0,52,0.01,,,0.01,Weather View 32 v70,2013-08-12 18:30:00,
2013-08-12 14:35:00,79.8,60.5,29.94,ESE,118,4.0,6.0,52,0.01,,,0.01,Weather View 32 v70,2013-08-12 18:35:00,
2013-08-12 14:40:00,80.4,62.2,29.94,SSW,203,2.0,6.0,54,0.01,,,0.01,Weather View 32 v70,2013-08-12 18:40:00,
2013-08-12 14:46:00,80.4,62.2,29.94,SE,133,2.0,6.0,54,0.01,,,0.01,Weather View 32 v70,2013-08-12 18:46:00,
2013-08-12 14:55:00,81.6,62.7,29.94,South,172,3.0,6.0,53,0.00,,,0.01,Weather View 32 v70,2013-08-12 18:55:00,
2013-08-12 15:00:00,80.7,61.4,29.94,SSE,151,1.0,7.0,52,0.00,,,0.01,Weather View 32 v70,2013-08-12 19:00:00,
2013-08-12 15:10:00,80.4,62.7,29.94,South,178,1.0,7.0,55,0.00,,,0.01,Weather View 32 v70,2013-08-12 19:10:00,
2013-08-12 15:15:00,80.9,61.6,29.93,SE,141,3.0,7.0,52,0.00,,,0.01,Weather View 32 v70,2013-08-12 19:15:00,
2013-08-12 15:20:00,80.4,59.4,29.93,ESE,108,2.0,7.0,49,0.00,,,0.01,Weather View 32 v70,2013-08-12 19:20:00,
2013-08-12 15:25:00,80.6,62.4,29.94,SSW,210,3.0,7.0,54,0.00,,,0.01,Weather View 32 v70,2013-08-12 19:25:00,
2013-08-12 15:30:00,80.6,61.3,29.93,ESE,116,2.0,7.0,52,0.00,,,0.01,Weather View 32 v70,2013-08-12 19:30:00,
2013-08-12 15:35:00,80.2,61.5,29.93,SSE,166,5.0,7.0,53,0.00,,,0.01,Weather View 32 v70,2013-08-12 19:35:00,
2013-08-12 15:40:00,79.8,61.6,29.93,East,90,2.0,7.0,54,0.00,,,0.01,Weather View 32 v70,2013-08-12 19:40:00,
2013-08-12 15:45:00,80.2,61.5,29.93,SE,135,1.0,7.0,53,0.00,,,0.01,Weather View 32 v70,2013-08-12 19:45:00,
2013-08-12 15:50:00,79.8,60.5,29.93,ESE,113,4.0,7.0,52,0.00,,,0.01,Weather View 32 v70,2013-08-12 19:50:00,
2013-08-12 15:55:00,79.5,61.9,29.93,SSW,209,3.0,7.0,55,0.00,,,0.01,Weather View 32 v70,2013-08-12 19:55:00,
2013-08-12 16:00:00,79.5,61.3,29.93,SE,137,2.0,7.0,54,0.00,,,0.01,Weather View 32 v70,2013-08-12 20:00:00,
2013-08-12 16:05:00,79.5,60.3,29.93,ESE,106,2.0,7.0,52,0.00,,,0.01,Weather View 32 v70,2013-08-12 20:05:00,
2013-08-12 16:10:00,79.7,61.5,29.93,West,262,2.0,7.0,54,0.00,,,0.01,Weather View 32 v70,2013-08-12 20:10:00,
2013-08-12 16:15:00,80.0,60.2,29.93,SSW,204,2.0,7.0,51,0.00,,,0.01,Weather View 32 v70,2013-08-12 20:15:00,
2013-08-12 16:20:00,79.7,61.0,29.93,NE,42,1.0,7.0,53,0.00,,,0.01,Weather View 32 v70,2013-08-12 20:20:00,
2013-08-12 16:25:00,79.3,61.7,29.93,WSW,244,2.0,7.0,55,0.00,,,0.01,Weather View 32 v70,2013-08-12 20:25:00,
2013-08-12 16:30:00,79.1,61.5,29.93,SE,139,3.0,7.0,55,0.00,,,0.01,Weather View 32 v70,2013-08-12 20:30:00,
2013-08-12 16:35:00,79.3,62.2,29.93,South,172,2.0,7.0,56,0.00,,,0.01,Weather View 32 v70,2013-08-12 20:35:00,
2013-08-12 16:40:00,79.3,61.7,29.93,SE,141,2.0,7.0,55,0.00,,,0.01,Weather View 32 v70,2013-08-12 20:40:00,
2013-08-12 16:45:00,79.5,62.4,29.93,SW,214,0.0,7.0,56,0.00,,,0.01,Weather View 32 v70,2013-08-12 20:45:00,
2013-08-12 16:50:00,79.5,60.8,29.94,ESE,118,2.0,7.0,53,0.00,,,0.01,Weather View 32 v70,2013-08-12 20:50:00,
2013-08-12 16:55:00,79.1,61.0,29.94,SE,142,3.0,6.0,54,0.00,,,0.01,Weather View 32 v70,2013-08-12 20:55:00,
2013-08-12 17:00:00,78.9,61.3,29.93,SE,131,3.0,6.0,55,0.00,,,0.01,Weather View 32 v70,2013-08-12 21:00:00,
2013-08-12 17:05:00,78.9,60.8,29.93,SSE,156,2.0,6.0,54,0.00,,,0.01,Weather View 32 v70,2013-08-12 21:05:00,
2013-08-12 17:10:00,79.1,61.5,29.93,SE,131,0.0,5.0,55,0.00,,,0.01,Weather View 32 v70,2013-08-12 21:10:00,
2013-08-12 17:15:00,78.8,61.2,29.93,SSE,164,2.0,5.0,55,0.00,,,0.01,Weather View 32 v70,2013-08-12 21:15:00,
2013-08-12 17:20:00,78.6,61.0,29.93,SE,137,1.0,5.0,55,0.00,,,0.01,Weather View 32 v70,2013-08-12 21:20:00,
2013-08-12 17:25:00,78.4,63.8,29.93,SSE,162,1.0,5.0,61,0.00,,,0.01,Weather View 32 v70,2013-08-12 21:25:00,
2013-08-12 17:30:00,78.2,62.2,29.93,ESE,107,3.0,5.0,58,0.00,,,0.01,Weather View 32 v70,2013-08-12 21:30:00,
2013-08-12 17:35:00,78.2,62.2,29.93,SSE,163,1.0,5.0,58,0.00,,,0.01,Weather View 32 v70,2013-08-12 21:35:00,
2013-08-12 17:40:00,78.2,62.6,29.93,ESE,110,1.0,5.0,59,0.00,,,0.01,Weather View 32 v70,2013-08-12 21:40:00,
2013-08-12 17:45:00,78.2,62.6,29.92,SE,125,3.0,5.0,59,0.00,,,0.01,Weather View 32 v70,2013-08-12 21:45:00,
2013-08-12 17:50:00,77.9,61.9,29.92,SSE,150,2.0,5.0,58,0.00,,,0.01,Weather View 32 v70,2013-08-12 21:50:00,
2013-08-12 17:55:00,77.7,62.2,29.92,SSE,164,1.0,4.0,59,0.00,,,0.01,Weather View 32 v70,2013-08-12 21:55:00,
2013-08-12 18:00:00,77.3,62.3,29.92,SSE,150,1.0,4.0,60,0.00,,,0.01,Weather View 32 v70,2013-08-12 22:00:00,
2013-08-12 18:05:00,77.1,63.5,29.92,SE,130,2.0,4.0,63,0.00,,,0.01,Weather View 32 v70,2013-08-12 22:05:00,
2013-08-12 18:10:00,76.8,62.3,29.92,SE,142,2.0,4.0,61,0.00,,,0.01,Weather View 32 v70,2013-08-12 22:10:00,
2013-08-12 18:15:00,76.8,63.2,29.93,SSE,156,1.0,4.0,63,0.00,,,0.01,Weather View 32 v70,2013-08-12 22:15:00,
2013-08-12 18:20:00,76.8,63.7,29.93,SW,220,1.0,4.0,64,0.00,,,0.01,Weather View 32 v70,2013-08-12 22:20:00,
2013-08-12 18:25:00,76.8,63.7,29.92,SSW,209,1.0,4.0,64,0.00,,,0.01,Weather View 32 v70,2013-08-12 22:25:00,
2013-08-12 18:30:00,76.8,64.1,29.92,SSW,198,0.0,4.0,65,0.00,,,0.01,Weather View 32 v70,2013-08-12 22:30:00,
2013-08-12 18:35:00,76.8,62.7,29.92,SSE,158,1.0,4.0,62,0.00,,,0.01,Weather View 32 v70,2013-08-12 22:35:00,
2013-08-12 18:40:00,76.8,64.5,29.92,SSE,158,1.0,4.0,66,0.00,,,0.01,Weather View 32 v70,2013-08-12 22:40:00,
2013-08-12 18:45:00,76.4,63.3,29.92,SSW,212,1.0,4.0,64,0.00,,,0.01,Weather View 32 v70,2013-08-12 22:45:00,
2013-08-12 18:50:00,76.1,63.4,29.93,South,187,1.0,3.0,65,0.00,,,0.01,Weather View 32 v70,2013-08-12 22:50:00,
2013-08-12 18:55:00,75.7,64.3,29.93,SSW,199,1.0,3.0,68,0.00,,,0.01,Weather View 32 v70,2013-08-12 22:55:00,
2013-08-12 19:00:00,75.3,64.8,29.93,West,264,0.0,3.0,70,0.00,,,0.01,Weather View 32 v70,2013-08-12 23:00:00,
2013-08-12 19:05:00,74.8,64.7,29.93,South,171,1.0,3.0,71,0.00,,,0.01,Weather View 32 v70,2013-08-12 23:05:00,
2013-08-12 19:10:00,74.4,62.7,29.93,SSW,194,1.0,3.0,67,0.00,,,0.01,Weather View 32 v70,2013-08-12 23:10:00,
2013-08-12 19:15:00,74.4,63.1,29.93,SW,236,1.0,3.0,68,0.00,,,0.01,Weather View 32 v70,2013-08-12 23:15:00,
2013-08-12 19:21:00,74.3,65.1,29.93,West,272,0.0,3.0,73,0.00,,,0.01,Weather View 32 v70,2013-08-12 23:21:00,
2013-08-12 19:26:00,73.9,65.4,29.93,South,172,0.0,3.0,75,0.00,,,0.01,Weather View 32 v70,2013-08-12 23:26:00,
2013-08-12 19:31:00,73.7,64.5,29.93,SSE,158,1.0,3.0,73,0.00,,,0.01,Weather View 32 v70,2013-08-12 23:31:00,
2013-08-12 19:36:00,73.5,63.5,29.93,ESE,120,2.0,3.0,71,0.00,,,0.01,Weather View 32 v70,2013-08-12 23:36:00,
2013-08-12 19:41:00,73.7,63.7,29.93,South,183,0.0,3.0,71,0.00,,,0.01,Weather View 32 v70,2013-08-12 23:41:00,
2013-08-12 19:46:00,73.5,63.9,29.93,South,183,0.0,3.0,72,0.00,,,0.01,Weather View 32 v70,2013-08-12 23:46:00,
2013-08-12 19:51:00,72.6,63.4,29.94,SSW,196,1.0,3.0,73,0.00,,,0.01,Weather View 32 v70,2013-08-12 23:51:00,
2013-08-12 19:56:00,72.1,63.7,29.93,SE,138,0.0,3.0,75,0.00,,,0.01,Weather View 32 v70,2013-08-12 23:56:00,
2013-08-12 20:01:00,71.6,64.4,29.93,WNW,303,2.0,3.0,78,0.00,,,0.01,Weather View 32 v70,2013-08-13 00:01:00,
2013-08-12 20:06:00,71.0,63.8,29.94,North,356,0.0,3.0,78,0.00,,,0.01,Weather View 32 v70,2013-08-13 00:06:00,
2013-08-12 20:11:00,70.5,63.6,29.94,WNW,302,0.0,3.0,79,0.00,,,0.01,Weather View 32 v70,2013-08-13 00:11:00,
2013-08-12 20:16:00,70.3,63.8,29.94,SE,134,0.0,3.0,80,0.00,,,0.01,Weather View 32 v70,2013-08-13 00:16:00,
2013-08-12 20:21:00,69.9,63.8,29.94,West,270,1.0,3.0,81,0.00,,,0.01,Weather View 32 v70,2013-08-13 00:21:00,
2013-08-12 20:26:00,69.4,63.6,29.94,NNW,348,1.0,3.0,82,0.00,,,0.01,Weather View 32 v70,2013-08-13 00:26:00,
2013-08-12 20:31:00,69.0,63.6,29.94,West,278,0.0,3.0,83,0.00,,,0.01,Weather View 32 v70,2013-08-13 00:31:00,
2013-08-12 20:36:00,68.9,63.5,29.94,NW,307,0.0,2.0,83,0.00,,,0.01,Weather View 32 v70,2013-08-13 00:36:00,
2013-08-12 20:41:00,68.5,63.5,29.94,North,9,0.0,2.0,84,0.00,,,0.01,Weather View 32 v70,2013-08-13 00:41:00,
2013-08-12 20:46:00,68.1,63.1,29.94,SW,214,0.0,2.0,84,0.00,,,0.01,Weather View 32 v70,2013-08-13 00:46:00,
2013-08-12 20:51:00,68.1,63.4,29.94,NW,315,0.0,2.0,85,0.00,,,0.01,Weather View 32 v70,2013-08-13 00:51:00,
2013-08-12 20:56:00,68.0,63.3,29.94,WSW,242,0.0,2.0,85,0.00,,,0.01,Weather View 32 v70,2013-08-13 00:56:00,
2013-08-12 21:01:00,68.1,63.7,29.95,West,265,0.0,2.0,86,0.00,,,0.01,Weather View 32 v70,2013-08-13 01:01:00,
2013-08-12 21:06:00,68.0,63.6,29.95,NW,312,0.0,2.0,86,0.00,,,0.01,Weather View 32 v70,2013-08-13 01:06:00,
2013-08-12 21:11:00,68.0,63.6,29.96,ESE,121,0.0,2.0,86,0.00,,,0.01,Weather View 32 v70,2013-08-13 01:11:00,
2013-08-12 21:16:00,68.0,63.6,29.96,SSW,203,0.0,1.0,86,0.00,,,0.01,Weather View 32 v70,2013-08-13 01:16:00,
2013-08-12 21:21:00,67.8,63.8,29.96,NNE,14,0.0,1.0,87,0.00,,,0.01,Weather View 32 v70,2013-08-13 01:21:00,
2013-08-12 21:26:00,67.8,63.8,29.95,WNW,292,0.0,1.0,87,0.00,,,0.01,Weather View 32 v70,2013-08-13 01:26:00,
2013-08-12 21:31:00,67.8,63.8,29.95,West,272,0.0,1.0,87,0.00,,,0.01,Weather View 32 v70,2013-08-13 01:31:00,
2013-08-12 21:36:00,68.0,64.3,29.96,West,277,1.0,1.0,88,0.00,,,0.01,Weather View 32 v70,2013-08-13 01:36:00,
2013-08-12 21:41:00,67.8,64.1,29.96,WNW,294,0.0,1.0,88,0.00,,,0.01,Weather View 32 v70,2013-08-13 01:41:00,
2013-08-12 21:46:00,67.8,64.1,29.95,NW,323,1.0,1.0,88,0.00,,,0.01,Weather View 32 v70,2013-08-13 01:46:00,
2013-08-12 21:51:00,67.8,64.1,29.96,West,280,0.0,1.0,88,0.00,,,0.01,Weather View 32 v70,2013-08-13 01:51:00,
2013-08-12 21:56:00,67.8,64.1,29.95,ENE,71,0.0,1.0,88,0.00,,,0.01,Weather View 32 v70,2013-08-13 01:56:00,
2013-08-12 22:01:00,67.8,64.1,29.94,WNW,301,0.0,1.0,88,0.00,,,0.01,Weather View 32 v70,2013-08-13 02:01:00,
2013-08-12 22:06:00,67.8,64.1,29.94,West,265,0.0,1.0,88,0.00,,,0.01,Weather View 32 v70,2013-08-13 02:06:00,
2013-08-12 22:11:00,68.0,64.3,29.94,North,9,0.0,1.0,88,0.00,,,0.01,Weather View 32 v70,2013-08-13 02:11:00,
2013-08-12 22:16:00,67.8,64.1,29.95,West,281,0.0,1.0,88,0.00,,,0.01,Weather View 32 v70,2013-08-13 02:16:00,
2013-08-12 22:21:00,67.8,64.1,29.95,NNW,333,1.0,1.0,88,0.00,,,0.01,Weather View 32 v70,2013-08-13 02:21:00,
2013-08-12 22:26:00,67.6,63.9,29.94,NW,321,1.0,1.0,88,0.00,,,0.01,Weather View 32 v70,2013-08-13 02:26:00,
2013-08-12 22:31:00,67.4,63.7,29.95,NNW,328,2.0,2.0,88,0.00,,,0.01,Weather View 32 v70,2013-08-13 02:31:00,
2013-08-12 22:36:00,67.4,63.7,29.95,SW,218,1.0,2.0,88,0.00,,,0.01,Weather View 32 v70,2013-08-13 02:36:00,
2013-08-12 22:41:00,67.6,63.9,29.95,West,268,1.0,2.0,88,0.00,,,0.01,Weather View 32 v70,2013-08-13 02:41:00,
2013-08-12 22:46:00,67.8,64.1,29.95,SW,231,0.0,2.0,88,0.00,,,0.01,Weather View 32 v70,2013-08-13 02:46:00,
2013-08-12 22:51:00,67.8,64.1,29.95,North,356,0.0,2.0,88,0.00,,,0.01,Weather View 32 v70,2013-08-13 02:51:00,
2013-08-12 22:56:00,67.4,63.7,29.95,WNW,288,0.0,2.0,88,0.00,,,0.01,Weather View 32 v70,2013-08-13 02:56:00,
2013-08-12 23:01:00,67.4,63.7,29.95,NW,321,0.0,2.0,88,0.00,,,0.01,Weather View 32 v70,2013-08-13 03:01:00,
2013-08-12 23:06:00,67.4,63.7,29.95,NNW,329,1.0,2.0,88,0.00,,,0.01,Weather View 32 v70,2013-08-13 03:06:00,
2013-08-12 23:11:00,67.4,63.7,29.95,NNW,346,1.0,2.0,88,0.00,,,0.01,Weather View 32 v70,2013-08-13 03:11:00,
2013-08-12 23:16:00,67.1,63.4,29.95,SW,232,0.0,2.0,88,0.00,,,0.01,Weather View 32 v70,2013-08-13 03:16:00,
2013-08-12 23:21:00,67.2,63.5,29.95,WSW,238,1.0,2.0,88,0.00,,,0.01,Weather View 32 v70,2013-08-13 03:21:00,
2013-08-12 23:26:00,67.4,64.0,29.95,WNW,299,0.0,2.0,89,0.00,,,0.01,Weather View 32 v70,2013-08-13 03:26:00,
2013-08-12 23:31:00,67.8,64.4,29.95,SSW,193,1.0,2.0,89,0.00,,,0.01,Weather View 32 v70,2013-08-13 03:31:00,
2013-08-12 23:36:00,67.8,64.4,29.95,North,350,2.0,2.0,89,0.00,,,0.01,Weather View 32 v70,2013-08-13 03:36:00,
2013-08-12 23:41:00,67.8,64.4,29.94,NW,314,1.0,2.0,89,0.00,,,0.01,Weather View 32 v70,2013-08-13 03:41:00,
2013-08-12 23:46:00,67.4,64.0,29.94,SSE,156,0.0,2.0,89,0.00,,,0.01,Weather View 32 v70,2013-08-13 03:46:00,
2013-08-12 23:53:00,67.1,63.7,29.95,WSW,247,0.0,2.0,89,0.00,,,0.01,Weather View 32 v70,2013-08-13 03:53:00,
2013-08-12 23:58:00,67.2,63.8,29.94,NNW,327,1.0,2.0,89,0.00,,,0.01,Weather View 32 v70,2013-08-13 03:58:00,